Regional Weather Roundup
Issued by NWS

Home | Current Version | Previous Version | Text Only | Print | Product List | Glossary On
Versions: 1 2 3 4 5 6 7 8 9 10 11 12 13 14 15 16 17 18 19 20 21 22 23 24 25 26 27 28 29 30 31 32 33 34 35 36 37 38 39 40 41 42 43 44 45 46 47 48 49 50
512
ASUS44 KMEG 201210
RWRTN
TENNESSEE HOURLY STATE WEATHER ROUNDUP
NATIONAL WEATHER SERVICE MEMPHIS TN
700 AM CDT SUN MAY 20 2018

TNZ002-004-019-021-049-052-054-088>092-201300-
WEST TENNESSEE

CITY           SKY/WX    TMP DP  RH WIND       PRES   REMARKS
MEMPHIS INTL   FAIR      72  66  81 S9        30.05F
NWS MEMPHIS      N/A     68 N/A N/A MISG        N/A
JACKSON        FAIR      67  65  93 E3        30.08R
DYERSBURG      FAIR      68  65  90 SE3       30.06F
SOMERVILLE     SUNNY     68  66  94 S7        30.05F
COVINGTON      SUNNY     68  68 100 E3        30.06S
BOLIVAR        SUNNY     68  66  94 CALM      30.07S
PARIS          SUNNY     66  64  94 S6        30.08S
HUNTINGDON     SUNNY     66  64  94 CALM      30.08S
LEXINGTON      SUNNY     64  63  94 CALM      30.09S
SELMER         SUNNY     66  63  88 VRB3      30.09R
SAVANNAH       SUNNY     64  64 100 CALM      30.10R
$$

TNZ008-025-027-028-033-062-065-066-201300-
NORTH MIDDLE TENNESSEE

CITY           SKY/WX    TMP DP  RH WIND       PRES   REMARKS
NASHVILLE      PTSUNNY   68  63  84 SE3       30.11R
DICKSON        SUNNY     64  63  94 CALM      30.11R
PORTLAND       SUNNY     68  64  88 S6        30.10R
CLARKSVILLE    FAIR      66  61  84 CALM      30.08R
SMYRNA         FAIR      68  64  87 CALM      30.12R
MURFREESBORO   SUNNY     70  64  83 CALM      30.10R
COOKEVILLE     SUNNY     68  66  94 SE8       30.09F
LIVINGSTON     SUNNY     68  63  83 SE5       30.10F
GALLATIN       SUNNY     68  64  88 CALM      30.13R
CROSSVILLE     FAIR      66  64  93 CALM      30.18R
$$

TNZ061-075-076-078-094-096-097-201300-
SOUTH MIDDLE TENNESSEE

CITY           SKY/WX    TMP DP  RH WIND       PRES   REMARKS
LEWISBURG      SUNNY     66  64  94 CALM      30.10R
FAYETTEVILLE   SUNNY     70  68  94 S5        30.10F
TULLAHOMA      SUNNY     68  66  94 CALM      30.11F
WINCHESTER     SUNNY     68  64  88 SE3       30.12S
MCMINNVILLE    SUNNY     68  66  94 CALM      30.11F
COLUMBIA       SUNNY     66  66 100 CALM      30.10R
SHELBYVILLE    SUNNY     66  64  94 CALM      30.11R
$$

TNZ017-018-042-046-047-201300-
NORTHEAST TENNESSEE

CITY           SKY/WX    TMP DP  RH WIND       PRES   REMARKS
TRI CITIES     FOG       63  63 100 CALM      30.17R VSB 1/8
ELIZABETHTON   FAIR      66  64  94 CALM      30.17S FOG
GREENEVILLE    SUNNY     66  64  94 CALM      30.17R
$$

TNZ012-013-036-069-073-074-201300-
CENTRAL EAST TENNESSEE

CITY           SKY/WX    TMP DP  RH WIND       PRES   REMARKS
KNOXVILLE      NOT AVBL
OAK RIDGE      FOG       67  67 100 CALM      30.16  VSB 3/4
DOWNTOWN KNOXV SUNNY     66  66 100 CALM      30.14R FOG
GATLINBURG     FOG       66  66 100 CALM      30.15R VSB 1/4
MORRISTOWN     SUNNY     66  66 100 CALM      30.15R
JACKSBORO      FOG       64  64 100 CALM      30.19R VSB 0
$$

TNZ083-085-099-201300-
SOUTHEAST TENNESSEE

CITY           SKY/WX    TMP DP  RH WIND       PRES   REMARKS
CHATTANOOGA    PTSUNNY   69  65  86 CALM      30.13R
DAYTON         PTSUNNY   68  68 100 CALM      30.13R FOG
$$

SKY/WX REPORTED AS FAIR MEANS FEW OR NO CLOUDS BELOW
12 THOUSAND FEET.





USA.gov is the U.S. government's official web portal to all federal, state and local government web resources and services.